Regional Weather Roundup
Issued by NWS

Home | Current Version | Previous Version | Text Only | Print | Product List | Glossary Off
Versions: 1 2 3 4 5 6 7 8 9 10 11 12 13 14 15 16 17 18 19 20 21 22 23 24 25 26 27

000
ASUS45 KBOU 070407
RWRCO

WEATHER ROUNDUP FOR COLORADO
NATIONAL WEATHER SERVICE DENVER/BOULDER CO
900 PM MST TUE DEC 06 2016

NOTE: "FAIR" INDICATES FEW OR NO CLOUDS BELOW 12000 FEET WITH NO
SIGNIFICANT WEATHER AND/OR OBSTRUCTIONS TO VISIBILITY.

COZ001>005-013-030-031-070500-
...NORTHWEST COLORADO...

CITY           SKY/WX    TMP DP  RH WIND       PRES   REMARKS
CRAIG          LGT SNOW  19  13  77 SW7       29.79R WCI  10
HAYDEN         CLOUDY    18  12  79 W10       29.75R WCI   6
MEEKER         LGT SNOW  19  17  92 S3        29.77F VSB 1
MOUNT WERNER   NOT AVBL
STEAMBOAT SPGS CLOUDY    17  15  91 SW5       29.73R WCI  10
WALDEN           N/A     12   9  85 N5        29.66S WCI   4
$$

COZ006>008-011-070500-
...WEST CENTRAL VALLEYS...

CITY           SKY/WX    TMP DP  RH WIND       PRES   REMARKS
GRAND JUNCTION CLOUDY    26  19  74 CALM      29.79R
MONTROSE       MOCLDY    24  10  55 VRB7      29.72R WCI  16
EAGLE          LGT SNOW  21  19  92 W3        29.71R FOG
RIFLE          CLOUDY    28  13  53 W20G32    29.75R WCI  15
DELTA          CLOUDY    30  11  46 E5        29.69R WCI  25
NUCLA          FAIR      37  14  38 SW20G29   29.72S
$$

COZ017>023-064>068-070500-
...SOUTHWEST COLORADO...

CITY           SKY/WX    TMP DP  RH WIND       PRES   REMARKS
DURANGO        FAIR      27  14  58 CALM      29.74S
CORTEZ         FAIR      36  20  52 SW12G20   29.75R
PAGOSA SPRINGS CLOUDY    29  19  65 CALM      29.75R
TELLURIDE      CLOUDY    29  10  45 W16G25    29.73S WCI  17
WOLF CREEK PAS CLOUDY    12  10  92 SW26G54   29.69S FOG     WCI  -8
$$

COZ009-010-012-014-032>034-037-058>063-070500-
...CENTRAL COLORADO...

CITY           SKY/WX    TMP DP  RH WIND       PRES   REMARKS
ASPEN          LGT SNOW  20  18  92 VRB7      29.63R VSB 3/4 WCI  11
BUENA VISTA    CLOUDY    14  10  81 E12       29.63F WCI   1
COPPER MTN     CLOUDY    14   9  79 MISG      29.55S
BERTHOUD PASS  LGT SNOW   3  -8  60 W17G30    29.52R VSB 1   WCI -17
COTTONWOOD PAS FLURRIES  19  12  73 NW8       29.57F WCI   9
GUNNISON       FAIR      32  11  41 W25       29.63F WCI  19
KREMMLING      LGT SNOW  21  18  86 CALM      29.68S
LEADVILLE      SNOW      16  13  88 VRB3      29.56F VSB 1/2
MONARCH PASS     N/A     12   9  85 W37G52    29.65F WCI -11
SALIDA         CLOUDY    15  10  78 SE20G26   29.74F WCI  -2
SUNLIGHT       HVY SNOW   9   5  85 W16G28    29.62F VSB 1/4 WCI  -9
WILKERSON PASS LGT SNOW  10   7  85 SW9       29.59S VSB 1   WCI  -2
$$

COZ069>075-070500-
...SAN LUIS VALLEY/SANGRE DE CRISTO MOUNTAINS...

CITY           SKY/WX    TMP DP  RH WIND       PRES   REMARKS
ALAMOSA        FAIR      25  15  66 S15       29.69S WCI  13
LA VETA PASS   FAIR      21  12  68 NE23G39   29.65S WCI   5
SAGUACHE       MOCLDY    21  18  86 SE7       29.67R WCI  13
$$

COZ035-036-038>040-070500-
...NORTHERN COLORADO FRONT RANGE...

CITY           SKY/WX    TMP DP  RH WIND       PRES   REMARKS
DENVER INTL AP LGT SNOW  19  10  68 SE13      29.84R WCI   6
DMNS CITY PARK   N/A     20   9  62 E9G16     29.84S WCI   9
AURORA         FLURRIES  18   8  66 SE12      29.84R WCI   5
FRONT RANGE AP NOT AVBL
ERIE MUNI ARPT LGT SNOW  21  13  71 E7        29.87R WCI  13
BOULDER MUN AP LGT SNOW  19  18  93 NE5       29.86R VSB 3/4 WCI  13
CENTENNIAL     LGT SNOW  16  11  80 SE10      29.82R WCI   4
BROOMFIELD     FLURRIES  21  12  68 NE6       29.84R WCI  14
FORT COLLINS   MOCLDY    19  16  86 SE10      29.89S WCI   8
LONGMONT       LGT SNOW  22  19  87 E7        29.90F WCI  14
$$

COZ041-046-047-076>085-087-088-070500-
...PIKES PEAK/PALMER DIVIDE AND SOUTHERN FOOTHILLS...

CITY           SKY/WX    TMP DP  RH WIND       PRES   REMARKS
COLO. SPRINGS  MOCLDY    16   5  62 E5        29.80R WCI   9
A. F. ACADEMY  MOCLDY     9   5  83 N5        29.77S WCI   1
SCHRIEVER AFB  NOT AVBL
ELLICOTT       FAIR     N/A N/A N/A E9          N/A
FALCON         MOCLDY    11   2  65 E3        29.77S
FORT CARSON    FAIR      14   7  72 NW7       29.79S WCI   4
LIMON          CLOUDY    18   2  49 E8        29.86S WCI   8
MONUMENT HILL  CLOUDY    10   7  85 SE8       29.77S WCI  -1
TRINIDAD       CLOUDY    21  -1  38 N10       29.75F WCI  10
$$

COZ042>045-048>051-090-091-070500-
...NORTHEAST COLORADO...

CITY           SKY/WX    TMP DP  RH WIND       PRES   REMARKS
GREELEY ARPT   FLURRIES  23  11  60 E14       29.92R WCI  11
AKRON          CLOUDY    21   9  59 NE15      29.93R WCI   8
BURLINGTON     CLOUDY    25  -1  32 E8        29.94S WCI  16
WRAY           CLOUDY    28   9  43 MISG      30.00R
STERLING       CLOUDY    27   1  33 E12       29.98R WCI  16
HOLYOKE        FAIR      27  18  69 S9        30.03R WCI  17
FORT MORGAN    CLOUDY    23   7  49 SE12      29.94S WCI  12
$$

COZ086-089-092>099-070500-
...SOUTHEAST COLORADO...

CITY           SKY/WX    TMP DP  RH WIND       PRES   REMARKS
PUEBLO         FAIR      16  -1  47 N9        29.82F WCI   4
LA JUNTA       FAIR      21   2  43 SE10      29.81S WCI  10
LAMAR          FAIR      19   1  45 SE12      29.87F WCI   7
SPRINGFIELD      N/A     17   3  54 SE12      29.87F WCI   4
$$




USA.gov is the U.S. government's official web portal to all federal, state and local government web resources and services.